Track LEMUR 2 CARLSANTAMARI now! 10-day predictions LEMUR 2 CARLSANTAMARI is classified as:
1 48959U 21059CJ 22135.91172935 .00025575 00000-0 12212-2 0 9996 2 48959 97.5451 266.6867 0015759 212.2706 147.7566 15.18920064 49089